Terminal Aerodrome Forecast
Issued by NWS Mobile, AL

Home | Current Version | Previous Version | Text Only | Print | Product List | Glossary On
Versions: 1 2 3 4 5 6 7 8 9 10 11 12 13 14 15 16 17 18 19 20
000
FTUS44 KMOB 292330
TAFMOB
TAF
KMOB 292330Z 3000/3024 14006KT P6SM FEW050 BKN190
     FM301000 00000KT 5SM BR SCT250
     FM301300 04004KT P6SM SCT250=

USA.gov is the U.S. government's official web portal to all federal, state and local government web resources and services.